Printer-friendly version

IAU Minor Planet Center

Minor Planet Center

MPEC 2002-Y67 : 2002 VQ94

The following Minor Planet Electronic Circular may be linked-to from your own Web pages, but must not otherwise be redistributed electronically.


Read MPEC 2002-Y66 Read MPEC 2002-Y68


M.P.E.C. 2002-Y67                                Issued 2002 Dec. 30, 23:52 UT

     The Minor Planet Electronic Circulars contain information on unusual
         minor planets and routine data on comets.  They are published
   on behalf of Commission 20 of the International Astronomical Union by the
          Minor Planet Center, Smithsonian Astrophysical Observatory,
                          Cambridge, MA 02138, U.S.A.

             Prepared using the Tamkin Foundation Computer Network

                              MPC@CFA.HARVARD.EDU
          URL http://cfa-www.harvard.edu/iau/mpc.html  ISSN 1523-6714

                                   2002 VQ94

                           Revision to MPEC 2002-V71

Additional Observations:
     K02V94Q  C2001 10 27.31699 02 11 09.56 +33 25 32.9                      644
     K02V94Q  C2001 10 27.32814 02 11 09.32 +33 25 32.7                      644
     K02V94Q  C2001 12 01.26117 01 57 24.81 +33 07 26.9                      644

Observer details:
644 Palomar Mountain/NEAT.  Observers E. F. Helin, S. Pravdo, K. Lawrence,
    M. Hicks, R. Thicksten.  Images located and measured by DANEOPS
    (R. Stoss).  1.2-m Schmidt + CCD.

Orbital elements:
2002 VQ94
Epoch 2002 Nov. 22.0 TT = JDT 2452600.5                 MPC
M 359.63714              (2000.0)            P               Q
n   0.00030975     Peri.   99.93821     -0.33002704     -0.77396499
a 216.3367892      Node    34.98429     -0.21279466     -0.49676890
e   0.9685596      Incl.   70.48829     +0.91967417     -0.39268162
P  3180            H    9.2           G   0.15           U   0
Residuals in seconds of arc
011027 644  0.2-  0.2+    021112 246  0.1+  0.0     021115 704  0.9+  0.0
011027 644  0.3+  0.0     021112 246  0.4-  0.2-    021115 704  0.6+  0.6+
011201 644  0.0   0.2-    021112 246  0.6-  0.1+    021115 704  0.2+  1.0-
020925 644  0.0   0.5-    021112 246  0.6-  0.2+    021115 704  0.2-  1.2+
020925 644  0.1+  0.6-    021113 704  0.0   1.1-    021115 704  0.2-  0.4-
020925 644  0.3+  0.5-    021113 704  0.0   0.3+    021115 926  1.4-  0.1-
021111 704  0.5+  0.1-    021113 704  0.7+  0.7+    021115 704  0.4+  0.4-
021111 704  0.3+  0.2+    021113 704  0.1-  0.8-    021115 926  0.7+  0.7-
021111 704  0.2+  0.3-    021113 918  0.1-  0.1-    021115 704  0.1-  0.7-
021111 704  0.1+  0.5+    021113 735  0.2-  0.2-    021115 926  0.3-  0.1-
021112 858  0.2+  0.5+    021113 704  0.1+  0.1-    021115 448  0.3+  0.3-
021112 858  0.2+  0.3+    021113 704  0.7-  0.5-    021115 448  0.1+  0.0
021112 649  0.1-  0.1-    021113 735  0.3-  0.2-    021115 448  0.2+  0.0
021112 649  0.0   0.1-    021113 918  1.1-  0.4+    021120 J95  0.8+  0.4+
021112 858  0.0   0.3+    021113 704  0.0   0.3+    021120 J95  0.6+  0.2-
021112 711  0.5-  0.3+    021113 704  0.1+  0.1+    021121 448  0.2+  0.1+
021112 711 (2.7-  0.8-)   021113 918  1.2-  0.1+    021121 448  0.3+  0.1-
021112 858  0.0   0.0     021113 704  0.0   0.6+    021121 448  0.5+  0.2-
021112 711  0.8-  0.2+    021113 704  0.3-  0.1-    021123 046  0.1+  0.1+
021112 649  0.0   0.1+    021113 918  1.0-  0.4+    021123 046  0.3+  0.1-
021112 670  0.6-  0.1+    021113 644  0.2+  0.3+    021123 046  0.2+  0.1+
021112 704  0.1-  0.4+    021113 644  0.2+  0.2+    021123 046  0.2-  0.3+
021112 704  0.4-  0.1-    021113 644(10.5-  0.1-)   021123 046  0.2+  0.1-
021112 704  0.1-  0.8+    021114 850 (0.9-  2.0-)   021123 046  0.0   0.3-
021112 926  0.5+  0.5-    021114 926  0.1-  0.3-    021123 046  0.7-  0.1+
021112 704  0.5+  0.8-    021114 926  0.4+  0.1-    021128 695  0.1+  0.4-
021112 926  0.3+  0.2-    021114 704  0.3+  0.1+    021128 695  0.1+  0.4-
021112 704  0.1-  0.4+    021114 711  0.5-  0.4+    021128 695  0.1+  0.3-
021112 670  0.3+  0.2-    021114 711  0.7-  1.0-    021128 695  0.1+  0.3-
021112 704  1.0+  0.8+    021114 704  0.3+  0.7-    021128 695  0.1+  0.3-
021112 926  0.5+  0.9-    021114 711  0.7-  0.7+    021128 695  0.2+  0.3-
021112 704  0.9-  0.7+    021114 670  0.5-  0.4-    021128 360  0.1+  0.2+
021112 704  1.0-  0.2+    021114 711  0.7-  0.2+    021128 360  0.3+  0.0
021112 557  0.2+  0.5+    021114 704  0.1-  0.4+    021128 360  0.2+  0.1-
021112 557  0.3+  0.3+    021114 704  0.5-  0.8-    021215 448  0.1-  0.2-
021112 557  0.0   0.5+    021114 704  0.1+  0.9+    021215 448  0.1+  0.4-
021112 557  0.1+  0.4+    021114 670  0.3+  0.5+    021215 448  0.1+  0.0
021112 246  0.1-  0.1-    021115 704  1.0+  1.1+
021112 246  0.1-  0.2+    021115 704  1.1+  0.0

Ephemeris:
2002 VQ94                a,e,i =216.34, 0.97, 70                 q = 6.8017
Date    TT    R. A. (2000) Decl.     Delta      r     Elong.  Phase     V
2002 12 22    01 43.99   +45 08.0    9.258    9.849   124.5     4.7    19.4
2003 01 01    01 41.49   +44 50.5    9.336    9.807   116.0     5.2    19.4
2003 01 11    01 39.99   +44 34.5    9.427    9.765   107.3     5.5    19.5
2003 01 21    01 39.48   +44 21.4    9.528    9.723    98.5     5.7    19.5
2003 01 31    01 39.92   +44 12.1    9.633    9.681    89.9     5.8    19.5
2003 02 10    01 41.26   +44 07.5    9.737    9.639    81.4     5.8    19.5
2003 02 20    01 43.41   +44 08.2    9.837    9.597    73.2     5.7    19.5
2003 03 02    01 46.28   +44 14.4    9.929    9.556    65.2     5.4    19.5
2003 03 12    01 49.78   +44 26.2   10.009    9.515    57.7     5.1    19.5
2003 03 22    01 53.82   +44 43.6   10.074    9.473    50.7     4.7    19.5
2003 04 01    01 58.30   +45 06.5   10.121    9.432    44.3     4.2    19.5
2003 04 11    02 03.14   +45 34.7   10.151    9.391    38.8     3.8    19.5
2003 04 21    02 08.23   +46 07.8   10.160    9.350    34.6     3.5    19.4
2003 05 01    02 13.50   +46 45.6   10.148    9.310    32.1     3.3    19.4
2003 05 11    02 18.86   +47 28.0   10.115    9.269    31.5     3.3    19.4

Brian G. Marsden             (C) Copyright 2002 MPC           M.P.E.C. 2002-Y67

Read MPEC 2002-Y66 Read MPEC 2002-Y68


Our Web policy. Index to the CBAT/MPC/ICQ pages.


Valid HTML 4.01!